Home   Weather   Crawley   Past weeks

Flag for United Kingdom Past Weather in Crawley, England, United Kingdom — Yesterday and Last 2 Weeks

Now
36 °F

Clear.


Feels Like: 29 °F
Forecast: N/A
Wind: 9 mph from East

Location: London / Gatwick Airport

Current Time: Dec 3, 2016 at 7:53:03 pm

Latest Report: Dec 3, 2016 at 7:20 pm


Visibility: 10 mi

Pressure: 30.24 "Hg

Humidity: 87%

Dew Point: 32 °F

Location of CrawleyLocation

Past Weather in Crawley — Graph

°F

Crawley Temperature Yesterday

Maximum temperature yesterday: 46 °F (at 12:50 pm)
Minimum temperature yesterday: 32 °F (at 12:20 am)
Average temperature yesterday: 41 °F

High & Low Weather Summary for the Past Weeks

 TemperatureHumidityPressure
High55 °F (Nov 21, 11:20 am)100% (Nov 19, 4:20 am)30.57 "Hg (Nov 19, 4:20 am)
Low18 °F (Nov 30, 7:50 am)40% (Nov 30, 1:50 pm)28.62 "Hg (Nov 20, 5:50 am)
Average41 °F84%30.02 "Hg
* Reported Nov 18 6:20 pm — Dec 3 6:20 pm, Crawley, Weather by CustomWeather, © 2016

Note: Actual official high and low records may vary slightly from our data, if they occured in-between our weather recording intervals... More about our weather records

Advertising

Crawley Weather History for the Previous 24 Hours

Scroll right to see more
 ConditionsComfort  
Time TempWeatherWind HumidityBarometerVisibility
6:20 pm
Sat, Dec 3
37 °FClear.9 mph81%30.24 "Hg10 mi
5:50 pm36 °FClear.8 mph81%30.24 "Hg10 mi
5:20 pm37 °FClear.6 mph75%30.24 "Hg10 mi
4:50 pm37 °FPassing clouds.7 mph75%30.24 "HgN/A
4:20 pm39 °FPassing clouds.7 mph75%30.24 "HgN/A
3:50 pm41 °FPassing clouds.12 mph70%30.24 "HgN/A
3:20 pm43 °FPassing clouds.10 mph66%30.24 "HgN/A
2:50 pm45 °FPassing clouds.14 mph66%30.24 "HgN/A
2:20 pm45 °FPassing clouds.13 mph66%30.24 "HgN/A
1:50 pm43 °FPassing clouds.12 mph66%30.24 "HgN/A
1:20 pm43 °FPassing clouds.12 mph71%30.24 "HgN/A
12:50 pm45 °FScattered clouds.12 mph66%30.24 "HgN/A
12:20 pm45 °FScattered clouds.12 mph66%30.27 "HgN/A
11:50 am45 °FScattered clouds.9 mph66%30.27 "HgN/A
11:20 am46 °FPassing clouds.14 mph66%30.27 "HgN/A
10:50 am45 °FPassing clouds.10 mph76%30.27 "HgN/A
10:20 am45 °FPassing clouds.9 mph81%30.27 "HgN/A
9:50 am45 °FPassing clouds.8 mph81%30.27 "HgN/A
9:20 am43 °FSunny.6 mph87%30.27 "Hg10 mi
8:50 am43 °FScattered clouds.5 mph81%30.27 "HgN/A
8:20 am43 °FPartly sunny.3 mph81%30.27 "HgN/A
7:50 am43 °FPartly sunny.5 mph81%30.27 "HgN/A
7:20 am43 °FPassing clouds.5 mph81%30.27 "HgN/A
6:50 am41 °FPassing clouds.5 mph87%30.27 "HgN/A
6:20 am41 °FPassing clouds.5 mph87%30.27 "HgN/A
5:50 am41 °FPartly cloudy.5 mph87%30.24 "HgN/A
5:20 am39 °FPartly cloudy.No wind93%30.24 "HgN/A
4:50 am39 °FPassing clouds.2 mph93%30.24 "HgN/A
4:20 am39 °FPassing clouds.No wind93%30.27 "HgN/A
3:50 am39 °FPassing clouds.No wind93%30.27 "HgN/A
3:20 am39 °FPassing clouds.5 mph93%30.27 "HgN/A
2:20 am39 °FClear.8 mph93%30.27 "Hg10 mi
1:50 am41 °FPassing clouds.9 mph93%30.27 "HgN/A
1:20 am41 °FPassing clouds.9 mph93%30.27 "HgN/A
12:50 am43 °FPassing clouds.10 mph93%30.27 "HgN/A
12:20 am43 °FPassing clouds.8 mph93%30.27 "HgN/A
11:50 pm
Fri, Dec 2
43 °FPassing clouds.6 mph93%30.27 "Hg5 mi
11:20 pm45 °FPassing clouds.6 mph87%30.27 "Hg4 mi
10:50 pm45 °FPartly cloudy.6 mph87%30.27 "Hg4 mi
10:20 pm45 °FPassing clouds.6 mph87%30.27 "Hg4 mi
9:50 pm43 °FLow clouds.7 mph93%30.27 "Hg6 mi
9:20 pm43 °FPassing clouds.7 mph93%30.27 "Hg5 mi
8:50 pm43 °FPassing clouds.6 mph93%30.27 "Hg5 mi
8:20 pm43 °FOvercast.5 mph93%30.27 "Hg5 mi
7:50 pm45 °FOvercast.3 mph81%30.27 "Hg5 mi
7:20 pm45 °FPassing clouds.5 mph81%30.30 "Hg6 mi
Weather by CustomWeather, © 2016

See weather overviewHow to use our weather pages